User: anonymous   Login
Location: Caltech
(34.1382°N, 118.1253°W)
Time: 15:16:24
(UTC-07:00)
Language:

OAO 2 Rocket - Orbit

View from above orbital plane
View from above orbital plane
View from above satellite
View from above satellite

Ground track
Ground track

The orbit data is extracted from the following two-line orbital elements,

1  3598U 68110B   16178.91462803 +.00000057 +00000-0 +17464-4 0  9995
2  3598 034.9923 183.2650 0049803 226.4672 133.1877 14.54228236493828
Epoch (UTC): 26 June 2016 21:57:03
Eccentricity: 0.0049803
inclination: 34.9923°
perigee height: 676 km
apogee height: 747 km
right ascension of ascending node: 183.2650°
argument of perigee: 226.4672°
revolutions per day: 14.54228236
mean anomaly at epoch: 133.1877°
orbit number at epoch: 49382

The dashed part of the orbit path shows where the satellite is in the earth's shadow,  

DLR